Flag for India Weather past 2 weeks in Fatehpur, Uttar Pradesh, India

Now
84 °F

Haze.


Feels Like: 88 °F
Forecast: 82 / 111 °F
Wind: No wind

Location: Lucknow / Amausi

Current Time: May 31, 2015 at 4:46:29 AM

Latest Report: May 31, 2015 at 4:00 AM


Visibility: 2 mi

Pressure: 29.56 "Hg

Humidity: 62%

Dew point: 70 °F

Location of FatehpurLocation

Historic Weather in Fatehpur — Graph

°F

Fatehpur temperature yesterday

Maximum temperature yesterday: 113 °F (at 3:30 PM)
Minimum temperature yesterday: 86 °F (at 4:00 AM)
Average temperature yesterday: 100 °F

Past Weeks' High & Low Weather Summary

 TemperatureHumidityPressure
High115 °F (May 23, 3:00 PM)75% (May 26, 8:00 AM)29.77 "Hg (May 26, 8:00 AM)
Low77 °F (May 16, 8:00 AM)13% (May 22, 2:30 PM)29.42 "Hg (May 22, 4:30 PM)
Average97 °F39%29.55 "Hg
* Reported May 16 4:00 AM — May 31 3:00 AM, Fatehpur, Weather by CustomWeather, © 2015

Note: Actual official high and low records may vary slightly from our data, if they occured in-between our weather recording intervals... More about our weather records

Advertising

Fatehpur weather history for previous 24 hours

 ConditionsComfort  
Time TempWeatherWind HumidityBarometerVisibility
3:00 AM
Sun, May 31
84 °FHaze.No wind58%29.56 "Hg2 mi
2:00 AM88 °FHaze.No wind52%29.56 "Hg2 mi
1:00 AM88 °FHaze.No wind52%29.56 "Hg2 mi
12:00 AM90 °FHaze.No wind49%29.59 "Hg2 mi
11:00 PM
Sat, May 30
90 °FHaze.No wind46%29.59 "Hg2 mi
10:00 PM93 °FHaze.No wind41%29.59 "Hg2 mi
9:00 PM97 °FHaze.No wind34%29.56 "Hg2 mi
8:00 PM99 °FHaze.2 mph33%29.56 "Hg3 mi
7:30 PM104 °FHaze.2 mph28%29.53 "Hg3 mi
6:30 PM108 °FClear.2 mph23%29.53 "Hg4 mi
6:00 PM109 °FClear.5 mph22%29.53 "Hg4 mi
5:30 PM111 °FClear.7 mph21%29.53 "Hg4 mi
5:00 PM111 °FClear.7 mph21%29.53 "Hg4 mi
4:30 PM113 °FPassing clouds.8 mph20%29.50 "Hg4 mi
4:00 PM113 °FPassing clouds.8 mph20%29.53 "Hg4 mi
3:30 PM113 °FPassing clouds.7 mph22%29.56 "Hg4 mi
2:30 PM111 °FDuststorm.5 mph25%29.56 "Hg3 mi
2:00 PM111 °FDuststorm.5 mph25%29.59 "Hg3 mi
1:30 PM109 °FDuststorm.5 mph30%29.59 "Hg3 mi
12:30 PM109 °FDuststorm.2 mph28%29.62 "Hg2 mi
12:00 PM108 °FDuststorm.2 mph34%29.62 "Hg2 mi
11:00 AM106 °FDuststorm.2 mph34%29.65 "Hg2 mi
10:30 AM104 °FDuststorm.2 mph38%29.65 "Hg2 mi
10:00 AM102 °FDuststorm.2 mph40%29.65 "Hg2 mi
9:30 AM100 °FDuststorm.2 mph42%29.65 "Hg2 mi
8:00 AM91 °FHaze.2 mph56%29.65 "Hg2 mi
7:00 AM90 °FHaze.2 mph49%29.62 "Hg2 mi
6:30 AM90 °FClear.2 mph46%29.62 "Hg2 mi
6:00 AM88 °FClear.No wind46%29.62 "Hg2 mi
5:30 AM86 °FClear.2 mph49%29.59 "Hg2 mi
4:00 AM86 °FPassing clouds.No wind55%29.56 "Hg2 mi
Weather by CustomWeather, © 2015

See weather overviewHow to use our weather pages